AirNav   Phillips 66 Aviation Fuel
 
 613 users online  

24M Wilderness Airpark
Kent City, Michigan, USA

GOING TO KENT CITY?


FAA INFORMATION EFFECTIVE 26 APRIL 2018

Location

FAA Identifier: 24M
Lat/Long: 43-14-41.0870N / 085-42-42.1520W
43-14.684783N / 085-42.702533W
43.2447464 / -85.7117089
(estimated)
Elevation: 785 ft. / 239 m (estimated)
Variation: 04W (1990)
From city: 3 miles NE of KENT CITY, MI
Time zone: UTC -4 (UTC -5 during Standard Time)
Zip code: 49330

Airport Operations

Airport use: Open to the public
Activation date: 11/1993
Control tower: no
ARTCC: CHICAGO CENTER
FSS: LANSING FLIGHT SERVICE STATION
NOTAMs facility: LAN (NOTAM-D service available)
Attendance: IREG
Wind indicator: yes
Segmented circle: no

Airport Communications

CTAF: 122.9
WX AWOS-A at 8D4 (7 nm S): 132.95 (616-887-2039)
WX AWOS-3 at FFX (17 nm NW): 118.775 (231-928-0715)

Nearby radio navigation aids

VOR radial/distance  VOR name  Freq  Var
MKGr073/15.0MUSKEGON VORTAC115.2001W
HICr180/19.8WHITE CLOUD VOR/DME117.6001W
VIOr345/29.1VICTORY VOR/DME115.9504W

Airport Services

Runway Information

Runway 9/27

Dimensions: 2543 x 100 ft. / 775 x 30 m
Surface: turf, in good condition
Runway edge markings: RWY 09/27 & DSPLD THLSDS MKD WITH 3 FT YELLOW CONES.
RUNWAY 9  RUNWAY 27
Traffic pattern: leftleft
Displaced threshold: 537 ft.335 ft.
Obstructions: 40 ft. trees, 60 ft. left of centerline
APCH RATIO 10:1 AT DSPLCD THLD BASED ON 60 FT TREES 609 FT DSTC123 FT L, 20:1 BASED ON STRAIGHT OUT.
15 ft. road, 10 ft. from runway
APCH RATIO 15:1 AT DSPLCD THLD BASED ON 41 FT TREES 625 FT DSTC 50 FT R/L.

Airport Ownership and Management from official FAA records

Ownership: Privately-owned
Owner: WILDERNESS AIRPARK ASSOCIATION
C/O RONALD FRITZ, 15401 SPARTA AVE
KENT CITY, MI 49330-9763
Phone 616-678-5012
Manager: RONALD FRITZ
15401 SPARTA AVE., 15387 SPARTA AVE.
KENT CITY, MI 49330-9763
Phone 616-678-5012
AMGR LIVES ON ARPT.

Airport Operational Statistics

Aircraft based on the field: 5
Single engine airplanes: 5
    
Aircraft operations: avg 67/month *
50% transient general aviation
50% local general aviation
* for 12-month period ending 31 December 2015

Additional Remarks

ARPT CLOSED NOV-APR WHEN SNOW COVERED EXCEPT FOR SKI EQUIPPED ACFT. NO SNOW REMOVAL.
NO SNOW REMOVAL. ARPT CLOSED NOV-APRIL & WHEN SNOW COVERED EXCEPT FOR SKI EQUIPPED ACFT.

Instrument Procedures

There are no published instrument procedures at 24M.

Some nearby airports with instrument procedures:

8D4 - Paul C Miller-Sparta Airport (7 nm S)
KFFX - Fremont Municipal Airport (17 nm NW)
6D6 - Greenville Municipal Airport (21 nm E)
13C - Lakeview Airport-Griffith Field (23 nm NE)
KGRR - Gerald R Ford International Airport (23 nm S)
 
Loc | Ops | Rwys | IFR | FBO | Links
Com | Nav | Svcs | Stats | Notes

AirNav Hotels Sweepstakes
 
Area around 24M (Wilderness Airpark)
 
Road maps at: MapQuest Bing Google
 
Aerial photo
WARNING: Photo may not be current or correct
Aerial photo of 24M (Wilderness Airpark)
Photo by Kevin Jarchow, 1st LT CAP
Grand Rapids Senior Squadron (MI-190)
Michigan Wing
U.S. Air Force Auxiliary
Photo taken 29-Dec-2009

Do you have a better or more recent aerial photo of Wilderness Airpark that you would like to share? If so, please send us your photo.

 
Sectional chart

 
Airport distance calculator
Flying to Wilderness Airpark? Find the distance to fly.

From to 24M

Sunrise and sunset
Times for 24-May-2018
 Local
(UTC-4)
 Zulu
(UTC)
Morning civil twilight05:3809:38
Sunrise06:1210:12
Sunset21:0801:08
Evening civil twilight21:4201:42

Current date and time
Zulu (UTC)  24-May-2018 11:05:26
Local (UTC-4)  24-May-2018 07:05:26
 
METAR
KFFX 
17nm NW 
241057Z AUTO 00000KT 4SM BR CLR 11/11 A3021 RMK AO2 T01090109
KMKG 
23nm W 
241055Z 00000KT 9SM FEW250 11/09 A3022 RMK AO2 SLP232 T01110094 $
KGRR 
23nm S 
241053Z 16004KT 8SM FEW250 12/11 A3022 RMK AO2 SLP232 T01170111
KRQB 
30nm N 
241055Z AUTO 00000KT 10SM CLR 09/08 A3022 RMK AO2 T00910082
KY70 
34nm SE 
241055Z AUTO 00000KT 10SM CLR 11/11 A3022 RMK AO2 T01110105
TAF
KMKG 
23nm W 
240904Z 2409/2506 14004KT P6SM SKC FM241400 20009KT P6SM SCT035 FM250000 VRB05KT P6SM SKC
KGRR 
23nm S 
240530Z 2406/2506 VRB04KT P6SM BKN250 FM240900 00000KT 5SM BR SCT250 FM241300 19005KT P6SM SCT035 FM241700 21008KT P6SM SCT035 FM250000 VRB05KT P6SM SKC
NOTAMs
Click for the latest NOTAMs
NOTAMs are issued by the DoD/FAA and will open in a separate window not controlled by AirNav.

 

 
 

Would you like to see your business listed on this page?

 If your business provides an interesting product or service to pilots, flight crews, aircraft, or users of the Wilderness Airpark, you should consider listing it here.  To start the listing process, click on the button below
 
Add a business
 

Other Pages about Wilderness Airpark

Page from the Michigan Airport Directory (PDF)
 
Update a link
 
Copyright © AirNav, LLC. All rights reserved. Privacy Policy  Contact